{"data":{"norad_id":64698,"epoch":"2026-05-25T02:30:10.340640Z","epoch_age_seconds":69122,"freshness":"FRESH","line1":"1 64698U 25142C   26145.10428635 -.00000815  00000+0 -60535-4 0  9992","line2":"2 64698  70.0004 121.8999 0004354 264.5062  95.5600 14.98327669 50911","mean_motion":14.98327669,"eccentricity":0.0004354,"inclination_deg":70.0004,"raan_deg":121.8999,"arg_perigee_deg":264.5062,"mean_anomaly_deg":95.56,"bstar":-6.0535e-5,"rev_number":5091,"period_min":96.107148642664,"perigee_km":569.03698225571,"apogee_km":575.08921650225,"semimajor_km":6950.200099379,"source":"CELESTRAK","updated_at":"2026-05-25T13:38:20.510672Z"}}